Wooster, OH

8:19 AM EDT on April 29, 2017 (GMT -0400)
Wayne County

Weather History for KBJJ - February, 2014

Change the Weather History Date:

Thursday, February 27, 2014

  Actual Average Record
Temperature  
Mean Temperature 10 °F -  
Max Temperature 18 °F 38 °F 61 °F (1998)
Min Temperature 1 °F 23 °F -14 °F (2015)
Degree Days  
Heating Degree Days 56    
Moisture  
Dew Point 4 °F    
Average Humidity 67    
Maximum Humidity 84    
Minimum Humidity 48    
Precipitation  
Precipitation 0.00 in - - ()
Sea Level Pressure  
Sea Level Pressure 29.82 in    
Wind  
Wind Speed 18 mph (WNW)    
Max Wind Speed 30 mph    
Max Gust Speed 40 mph    
Visibility 5 miles    
Events Snow    
Averages and records for this station are not official NWS values.
T = Trace of Precipitation, MM = Missing Value Source: NWS Daily Summary

Daily Weather History Graph

Daily Weather History Graph

Search for Another Location

Airport or City:

Trip Planner

Search our weather history database for the weather conditions in past years. The results will help you decide how hot, cold, wet, or windy it might be!

Date:

Astronomy

Feb. 27, 2014 Rise Set
Actual Time 7:04 AM EST 6:16 PM EST
Civil Twilight 6:37 AM EST 6:44 PM EST
Nautical Twilight 6:05 AM EST 7:15 PM EST
Astronomical Twilight 5:33 AM EST 7:47 PM EST
Moon 5:36 AM EST (2/27) 4:40 PM EST (2/27)
Length of Visible Light 12h 06m
Length of Day
11h 11m
Waning Crescent, 4% of the Moon is Illuminated
Feb 27
Waning Crescent
Mar 1
New
Mar 8
First Quarter
Mar 16
Full
Mar 23
Last Quarter

Hourly Weather History & Observations

Time (EST) Temp. Windchill Dew Point Humidity Pressure Visibility Wind Dir Wind Speed Gust Speed Precip Events Conditions
12:56 AM 16.0 °F -0.9 °F 1.0 °F 52% 29.75 in 10.0 mi WSW 19.6 mph 26.5 mph N/A   Overcast
1:56 AM 15.1 °F -1.1 °F 1.0 °F 54% 29.73 in 10.0 mi WSW 17.3 mph 26.5 mph N/A   Overcast
2:56 AM 14.0 °F -3.0 °F 1.0 °F 56% 29.70 in 10.0 mi WSW 18.4 mph 24.2 mph N/A   Scattered Clouds
3:56 AM 15.1 °F -0.6 °F 1.9 °F 56% 29.67 in 10.0 mi SW 16.1 mph 26.5 mph N/A   Overcast
4:56 AM 15.1 °F 0.5 °F 3.0 °F 59% 29.65 in 10.0 mi WSW 13.8 mph 24.2 mph N/A   Overcast
5:56 AM 15.1 °F -1.1 °F 6.1 °F 68% 29.64 in 7.0 mi WSW 17.3 mph 25.3 mph N/A   Overcast
6:09 AM 15.1 °F 0.5 °F 7.0 °F 70% 29.59 in 3.0 mi WSW 13.8 mph 28.8 mph 0.00 in Snow Light Snow
6:56 AM 15.1 °F -0.6 °F 9.0 °F 77% 29.65 in 3.0 mi WSW 16.1 mph 23.0 mph 0.00 in Snow Light Snow
7:09 AM 15.1 °F -0.1 °F 9.0 °F 77% 29.60 in 1.5 mi WSW 15.0 mph 24.2 mph 0.00 in Snow Light Snow
7:12 AM 15.1 °F 0.5 °F 9.0 °F 77% 29.60 in 0.8 mi WSW 13.8 mph - 0.00 in Snow Light Snow
7:31 AM 15.1 °F 0.5 °F 10.9 °F 84% 29.60 in 1.2 mi West 13.8 mph - 0.00 in Snow Light Snow
7:36 AM 16.0 °F 1.1 °F 10.9 °F 81% 29.60 in 3.0 mi West 15.0 mph - 0.00 in Snow Light Snow
7:47 AM 16.0 °F 0.6 °F 10.9 °F 81% 29.61 in 1.8 mi WSW 16.1 mph 23.0 mph 0.00 in Snow Light Snow
7:51 AM 15.8 °F -3.1 °F 10.4 °F 79% 29.61 in 0.8 mi West 25.3 mph 31.1 mph 0.00 in Snow Light Snow
7:56 AM 16.0 °F -1.3 °F 10.9 °F 81% 29.68 in 0.8 mi West 20.7 mph 31.1 mph 0.00 in Snow Light Snow
8:12 AM 16.0 °F -0.4 °F 10.9 °F 81% 29.63 in 1.2 mi West 18.4 mph - 0.00 in Snow Light Snow
8:16 AM 16.0 °F -2.5 °F 10.9 °F 81% 29.63 in 3.0 mi West 24.2 mph 29.9 mph 0.00 in Snow Light Snow
8:56 AM 18.0 °F 0.2 °F 8.1 °F 65% 29.71 in 9.0 mi West 24.2 mph 35.7 mph 0.00 in   Overcast
9:06 AM 18.0 °F 0.6 °F 7.0 °F 62% 29.66 in 8.0 mi WNW 23.0 mph 35.7 mph 0.00 in   Overcast
9:18 AM 18.0 °F 0.6 °F 9.0 °F 68% 29.66 in 3.0 mi WNW 23.0 mph 33.4 mph 0.00 in Snow Light Snow
9:23 AM 17.1 °F -0.3 °F 9.0 °F 71% 29.67 in 1.8 mi WNW 21.9 mph 33.4 mph 0.00 in Snow Light Snow
9:35 AM 17.1 °F 0.1 °F 10.0 °F 74% 29.68 in 1.0 mi West 20.7 mph 31.1 mph 0.00 in Snow Light Snow
9:40 AM 16.0 °F -2.8 °F 10.0 °F 77% 29.69 in 0.5 mi NW 25.3 mph 40.3 mph 0.00 in Snow Snow
9:54 AM 14.0 °F -4.7 °F 8.6 °F 79% 29.70 in 1.0 mi WNW 23.0 mph 36.8 mph 0.00 in Snow Light Snow
9:56 AM 15.1 °F -2.9 °F 8.1 °F 74% 29.76 in 1.0 mi WNW 21.9 mph 33.4 mph 0.00 in Snow Light Snow
10:00 AM 15.1 °F -5.3 °F 7.0 °F 70% 29.70 in 2.0 mi WNW 29.9 mph 39.1 mph 0.00 in Snow Light Snow
10:07 AM 17.1 °F 0.1 °F 7.0 °F 65% 29.71 in 9.0 mi WNW 20.7 mph 39.1 mph 0.00 in   Mostly Cloudy
10:15 AM 18.0 °F -0.8 °F 6.1 °F 60% 29.71 in 10.0 mi WNW 27.6 mph 35.7 mph 0.00 in   Mostly Cloudy
10:56 AM 17.1 °F -1.0 °F 3.9 °F 56% 29.81 in 10.0 mi WNW 24.2 mph 35.7 mph 0.00 in   Mostly Cloudy
11:56 AM 14.0 °F -4.7 °F 6.1 °F 71% 29.88 in 2.5 mi NW 23.0 mph 32.2 mph 0.00 in Snow Light Snow
11:59 AM 12.9 °F -6.9 °F 6.1 °F 74% 29.82 in 1.5 mi NW 25.3 mph 32.2 mph 0.00 in Snow Light Snow
12:07 PM 12.9 °F -6.5 °F 6.1 °F 74% 29.83 in 1.0 mi NW 24.2 mph 33.4 mph 0.00 in Snow Light Snow
12:16 PM 12.9 °F -6.1 °F 3.9 °F 67% 29.83 in 2.0 mi NW 23.0 mph 32.2 mph 0.00 in Snow Light Snow
12:24 PM 15.1 °F -3.3 °F 6.1 °F 68% 29.84 in 6.0 mi WNW 23.0 mph 28.8 mph 0.00 in Snow Light Snow
12:36 PM 14.0 °F -5.5 °F 5.0 °F 67% 29.85 in 1.8 mi NW 25.3 mph 31.1 mph 0.00 in Snow Light Snow
12:43 PM 12.9 °F -4.4 °F 6.1 °F 74% 29.85 in 1.0 mi NW 18.4 mph 31.1 mph 0.00 in Snow Light Snow
12:47 PM 12.9 °F -4.4 °F 5.0 °F 71% 29.85 in 2.5 mi NW 18.4 mph 28.8 mph 0.00 in Snow Light Snow
12:54 PM 14.0 °F -3.4 °F 3.2 °F 62% 29.86 in 8.0 mi NW 19.6 mph 26.5 mph 0.00 in Snow Light Snow
12:56 PM 15.1 °F -0.6 °F 3.9 °F 61% 29.91 in 9.0 mi WNW 16.1 mph 26.5 mph 0.00 in   Overcast
1:30 PM 12.0 °F -7.7 °F 3.9 °F 70% 29.89 in 1.8 mi NNW 24.2 mph 35.7 mph 0.00 in Snow Light Snow
1:41 PM 12.0 °F -7.3 °F 3.0 °F 67% 29.90 in 3.0 mi NNW 23.0 mph 29.9 mph 0.00 in Snow Light Snow
1:56 PM 14.0 °F -4.3 °F 3.0 °F 62% 29.98 in 10.0 mi NNW 21.9 mph 31.1 mph 0.00 in   Mostly Cloudy
2:36 PM 12.9 °F -5.7 °F -0.9 °F 54% 29.94 in 10.0 mi NW 21.9 mph 27.6 mph 0.00 in   Mostly Cloudy
2:56 PM 12.0 °F -4.5 °F -2.0 °F 53% 30.02 in 10.0 mi NW 16.1 mph 25.3 mph 0.00 in   Mostly Cloudy
3:46 PM 12.0 °F -5.1 °F 3.0 °F 67% 29.98 in 6.0 mi NW 17.3 mph - 0.00 in Snow Light Snow
3:56 PM 10.9 °F -5.9 °F 1.0 °F 64% 30.05 in 3.0 mi NNW 16.1 mph - 0.00 in Snow Light Snow
4:00 PM 10.9 °F -5.9 °F 1.9 °F 67% 29.99 in 1.8 mi NW 16.1 mph - 0.00 in Snow Light Snow
4:15 PM 10.0 °F -5.9 °F 1.9 °F 70% 29.99 in 3.0 mi NW 13.8 mph - 0.00 in Snow Light Snow
4:35 PM 12.0 °F -4.0 °F 1.0 °F 61% 30.00 in 10.0 mi NNW 15.0 mph 24.2 mph 0.00 in   Scattered Clouds
4:56 PM 12.0 °F -3.4 °F -0.9 °F 56% 30.08 in 10.0 mi NW 13.8 mph - 0.00 in   Scattered Clouds
5:56 PM 9.0 °F -5.9 °F -7.1 °F 48% 30.12 in 10.0 mi NW 11.5 mph - N/A   Clear
6:56 PM 8.1 °F -4.3 °F -7.1 °F 50% 30.14 in 10.0 mi NW 8.1 mph - N/A   Clear
7:56 PM 3.9 °F -5.3 °F -5.1 °F 66% 30.16 in 10.0 mi NNW 4.6 mph - N/A   Clear
8:56 PM 3.9 °F -5.3 °F -6.0 °F 64% 30.18 in 10.0 mi WNW 4.6 mph - N/A   Clear
9:56 PM 3.0 °F -4.4 °F -6.0 °F 66% 30.20 in 10.0 mi WNW 3.5 mph - N/A   Clear
10:56 PM 1.9 °F - -6.0 °F 69% 30.22 in 10.0 mi Calm Calm - N/A   Clear
11:56 PM 1.9 °F - -6.0 °F 69% 30.22 in 10.0 mi Calm Calm - N/A   Clear